Time,TemperatureF,DewpointF,PressureIn,WindDirection,WindDirectionDegrees,WindSpeedMPH,WindSpeedGustMPH,Humidity,HourlyPrecipIn,Conditions,Clouds,dailyrainin,SoftwareType,DateUTC
2013-01-27 00:05:00,22.4,11.0,30.30,SSE,150,0.0,9.0,61,0.00,,,0.00,Wunderground v.1.13,2013-01-27 06:05:00,
2013-01-27 00:15:00,22.4,11.0,30.30,SSE,153,1.0,1.0,61,0.00,,,0.00,Wunderground v.1.13,2013-01-27 06:15:00,
2013-01-27 00:25:00,22.4,11.0,30.28,SE,140,1.0,9.0,61,0.00,,,0.00,Wunderground v.1.13,2013-01-27 06:25:00,
2013-01-27 00:35:00,22.4,11.0,30.28,SSE,160,1.0,1.0,61,0.00,,,0.00,Wunderground v.1.13,2013-01-27 06:35:00,
2013-01-27 00:45:00,22.2,10.8,30.28,SSE,159,1.0,1.0,61,0.00,,,0.00,Wunderground v.1.13,2013-01-27 06:45:00,
2013-01-27 00:50:00,22.2,10.8,30.29,SSE,159,1.0,9.0,61,0.00,,,0.00,Wunderground v.1.13,2013-01-27 06:50:00,
2013-01-27 01:00:00,22.2,11.1,30.29,SSE,161,2.0,2.0,62,0.00,,,0.00,Wunderground v.1.13,2013-01-27 07:00:00,
2013-01-27 01:05:00,22.2,11.1,30.28,SE,141,1.0,1.0,62,0.00,,,0.00,Wunderground v.1.13,2013-01-27 07:05:00,
2013-01-27 01:15:00,22.2,11.5,30.28,SSE,155,2.0,9.0,63,0.00,,,0.00,Wunderground v.1.13,2013-01-27 07:15:00,
2013-01-27 01:25:00,22.4,11.7,30.28,SSE,157,1.0,1.0,63,0.00,,,0.00,Wunderground v.1.13,2013-01-27 07:25:00,
2013-01-27 01:35:00,22.4,11.3,30.29,SSE,155,1.0,1.0,62,0.00,,,0.00,Wunderground v.1.13,2013-01-27 07:35:00,
2013-01-27 01:40:00,22.4,11.3,30.29,SSE,157,2.0,2.0,62,0.00,,,0.00,Wunderground v.1.13,2013-01-27 07:40:00,
2013-01-27 01:50:00,22.5,11.4,30.29,SSE,147,1.0,1.0,62,0.00,,,0.00,Wunderground v.1.13,2013-01-27 07:50:00,
2013-01-27 01:55:00,22.7,11.6,30.29,SSE,159,1.0,9.0,62,0.00,,,0.00,Wunderground v.1.13,2013-01-27 07:55:00,
2013-01-27 02:00:00,22.9,11.4,30.29,SSE,167,1.0,1.0,61,0.00,,,0.00,Wunderground v.1.13,2013-01-27 08:00:00,
2013-01-27 02:05:00,22.9,11.4,30.28,SSE,151,2.0,2.0,61,0.00,,,0.00,Wunderground v.1.13,2013-01-27 08:05:00,
2013-01-27 02:15:00,23.0,11.5,30.28,SSE,148,1.0,1.0,61,0.00,,,0.00,Wunderground v.1.13,2013-01-27 08:15:00,
2013-01-27 02:25:00,23.2,11.7,30.29,SE,144,1.0,1.0,61,0.00,,,0.00,Wunderground v.1.13,2013-01-27 08:25:00,
2013-01-27 02:30:00,23.2,11.7,30.29,SE,145,1.0,1.0,61,0.00,,,0.00,Wunderground v.1.13,2013-01-27 08:30:00,
2013-01-27 02:35:00,23.2,11.7,30.28,SE,143,1.0,1.0,61,0.00,,,0.00,Wunderground v.1.13,2013-01-27 08:35:00,
2013-01-27 02:45:00,23.2,11.7,30.28,SE,143,0.0,9.0,61,0.00,,,0.00,Wunderground v.1.13,2013-01-27 08:45:00,
2013-01-27 02:50:00,23.2,11.7,30.28,SE,142,1.0,1.0,61,0.00,,,0.00,Wunderground v.1.13,2013-01-27 08:50:00,
2013-01-27 02:55:00,23.3,11.8,30.28,SSE,151,1.0,1.0,61,0.00,,,0.00,Wunderground v.1.13,2013-01-27 08:55:00,
2013-01-27 03:05:00,23.5,12.4,30.28,SSE,149,1.0,1.0,62,0.00,,,0.00,Wunderground v.1.13,2013-01-27 09:05:00,
2013-01-27 03:15:00,23.5,12.4,30.28,SSE,150,1.0,1.0,62,0.00,,,0.00,Wunderground v.1.13,2013-01-27 09:15:00,
2013-01-27 03:25:00,23.6,12.8,30.27,South,169,2.0,9.0,63,0.00,,,0.00,Wunderground v.1.13,2013-01-27 09:25:00,
2013-01-27 03:35:00,23.6,12.8,30.26,SSE,162,1.0,7.0,63,0.00,,,0.00,Wunderground v.1.13,2013-01-27 09:35:00,
2013-01-27 03:45:00,23.5,12.7,30.26,SE,139,2.0,2.0,63,0.00,,,0.00,Wunderground v.1.13,2013-01-27 09:45:00,
2013-01-27 03:50:00,23.5,13.1,30.24,SSE,160,1.0,1.0,64,0.00,,,0.00,Wunderground v.1.13,2013-01-27 09:50:00,
2013-01-27 03:55:00,23.5,13.1,30.24,South,172,2.0,2.0,64,0.00,,,0.00,Wunderground v.1.13,2013-01-27 09:55:00,
2013-01-27 04:00:00,23.5,13.1,30.24,SSE,168,2.0,7.0,64,0.00,,,0.00,Wunderground v.1.13,2013-01-27 10:00:00,
2013-01-27 04:05:00,23.5,13.1,30.24,SE,132,2.0,10.0,64,0.00,,,0.00,Wunderground v.1.13,2013-01-27 10:05:00,
2013-01-27 04:15:00,23.5,13.5,30.24,SSE,156,2.0,2.0,65,0.00,,,0.00,Wunderground v.1.13,2013-01-27 10:15:00,
2013-01-27 04:20:00,23.5,13.5,30.25,SSE,167,2.0,10.0,65,0.00,,,0.00,Wunderground v.1.13,2013-01-27 10:20:00,
2013-01-27 04:30:00,23.5,13.8,30.25,SSE,165,3.0,3.0,66,0.00,,,0.00,Wunderground v.1.13,2013-01-27 10:30:00,
2013-01-27 04:35:00,23.3,13.6,30.24,SE,130,2.0,10.0,66,0.00,,,0.00,Wunderground v.1.13,2013-01-27 10:35:00,
2013-01-27 04:45:00,23.5,14.1,30.24,SE,146,1.0,10.0,67,0.00,,,0.00,Wunderground v.1.13,2013-01-27 10:45:00,
2013-01-27 04:50:00,23.3,14.0,30.23,SSE,152,1.0,1.0,67,0.00,,,0.00,Wunderground v.1.13,2013-01-27 10:50:00,
2013-01-27 04:55:00,23.3,14.0,30.23,SE,136,1.0,1.0,67,0.00,,,0.00,Wunderground v.1.13,2013-01-27 10:55:00,
2013-01-27 05:00:00,23.2,13.9,30.23,SSE,158,1.0,1.0,67,0.00,,,0.00,Wunderground v.1.13,2013-01-27 11:00:00,
2013-01-27 05:05:00,23.0,14.0,30.23,SSE,154,1.0,1.0,68,0.00,,,0.00,Wunderground v.1.13,2013-01-27 11:05:00,
2013-01-27 05:15:00,23.0,14.3,30.23,SSE,153,1.0,1.0,69,0.00,,,0.00,Wunderground v.1.13,2013-01-27 11:15:00,
2013-01-27 05:20:00,23.0,14.7,30.23,SE,146,1.0,1.0,70,0.00,,,0.00,Wunderground v.1.13,2013-01-27 11:20:00,
2013-01-27 05:25:00,23.0,14.7,30.23,SE,143,1.0,1.0,70,0.00,,,0.00,Wunderground v.1.13,2013-01-27 11:25:00,
2013-01-27 05:35:00,23.2,14.9,30.23,SE,135,1.0,1.0,70,0.00,,,0.00,Wunderground v.1.13,2013-01-27 11:35:00,
2013-01-27 05:45:00,23.2,15.2,30.23,SSE,151,1.0,1.0,71,0.00,,,0.00,Wunderground v.1.13,2013-01-27 11:45:00,
2013-01-27 05:55:00,23.2,15.2,30.23,SSE,155,2.0,2.0,71,0.00,,,0.00,Wunderground v.1.13,2013-01-27 11:55:00,
2013-01-27 06:00:00,23.2,15.2,30.23,SE,138,1.0,1.0,71,0.00,,,0.00,Wunderground v.1.13,2013-01-27 12:00:00,
2013-01-27 06:05:00,23.3,15.6,30.23,SE,138,0.0,10.0,72,0.00,,,0.00,Wunderground v.1.13,2013-01-27 12:05:00,
2013-01-27 06:15:00,23.3,15.6,30.23,SE,146,1.0,1.0,72,0.00,,,0.00,Wunderground v.1.13,2013-01-27 12:15:00,
2013-01-27 06:25:00,23.3,15.6,30.23,SSE,151,1.0,10.0,72,0.00,,,0.00,Wunderground v.1.13,2013-01-27 12:25:00,
2013-01-27 06:30:00,23.3,15.6,30.23,ESE,113,1.0,10.0,72,0.00,,,0.00,Wunderground v.1.13,2013-01-27 12:30:00,
2013-01-27 06:35:00,23.3,15.6,30.23,SSE,150,2.0,2.0,72,0.00,,,0.00,Wunderground v.1.13,2013-01-27 12:35:00,
2013-01-27 06:45:00,23.5,16.1,30.23,SSE,148,1.0,1.0,73,0.00,,,0.00,Wunderground v.1.13,2013-01-27 12:45:00,
2013-01-27 06:55:00,23.5,16.1,30.23,SE,125,1.0,1.0,73,0.00,,,0.00,Wunderground v.1.13,2013-01-27 12:55:00,
2013-01-27 07:00:00,23.5,16.1,30.23,SE,132,1.0,10.0,73,0.00,,,0.00,Wunderground v.1.13,2013-01-27 13:00:00,
2013-01-27 07:05:00,23.5,16.1,30.23,SSE,150,1.0,8.0,73,0.00,,,0.00,Wunderground v.1.13,2013-01-27 13:05:00,
2013-01-27 07:15:00,23.5,16.1,30.23,SSE,154,1.0,1.0,73,0.00,,,0.00,Wunderground v.1.13,2013-01-27 13:15:00,
2013-01-27 07:25:00,23.6,16.2,30.22,SSE,153,2.0,2.0,73,0.00,,,0.00,Wunderground v.1.13,2013-01-27 13:25:00,
2013-01-27 07:35:00,23.6,16.5,30.23,SE,135,1.0,8.0,74,0.00,,,0.00,Wunderground v.1.13,2013-01-27 13:35:00,
2013-01-27 07:45:00,23.8,16.7,30.23,SE,146,1.0,1.0,74,0.00,,,0.00,Wunderground v.1.13,2013-01-27 13:45:00,
2013-01-27 07:55:00,23.9,16.8,30.23,SE,145,1.0,1.0,74,0.00,,,0.00,Wunderground v.1.13,2013-01-27 13:55:00,
2013-01-27 08:05:00,24.1,17.0,30.23,SE,143,1.0,1.0,74,0.00,,,0.00,Wunderground v.1.13,2013-01-27 14:05:00,
2013-01-27 08:15:00,24.2,16.8,30.23,SSE,152,1.0,1.0,73,0.00,,,0.00,Wunderground v.1.13,2013-01-27 14:15:00,
2013-01-27 08:20:00,24.4,17.0,30.23,SE,138,1.0,1.0,73,0.00,,,0.00,Wunderground v.1.13,2013-01-27 14:20:00,
2013-01-27 08:30:00,24.5,17.1,30.23,SSE,152,2.0,9.0,73,0.00,,,0.00,Wunderground v.1.13,2013-01-27 14:30:00,
2013-01-27 08:35:00,24.7,17.3,30.23,SE,145,1.0,1.0,73,0.00,,,0.00,Wunderground v.1.13,2013-01-27 14:35:00,
2013-01-27 08:45:00,25.0,17.2,30.23,SE,140,2.0,2.0,72,0.00,,,0.00,Wunderground v.1.13,2013-01-27 14:45:00,
2013-01-27 08:55:00,25.3,17.5,30.23,SSE,154,3.0,9.0,72,0.00,,,0.00,Wunderground v.1.13,2013-01-27 14:55:00,
2013-01-27 09:05:00,25.6,17.5,30.24,SSE,154,3.0,13.0,71,0.00,,,0.00,Wunderground v.1.13,2013-01-27 15:05:00,
2013-01-27 09:15:00,25.8,17.7,30.24,SSE,153,4.0,13.0,71,0.00,,,0.00,Wunderground v.1.13,2013-01-27 15:15:00,
2013-01-27 09:25:00,26.3,17.8,30.23,SE,136,3.0,13.0,70,0.00,,,0.00,Wunderground v.1.13,2013-01-27 15:25:00,
2013-01-27 09:30:00,26.6,18.1,30.23,SSE,157,3.0,13.0,70,0.00,,,0.00,Wunderground v.1.13,2013-01-27 15:30:00,
2013-01-27 09:40:00,27.2,18.4,30.23,SSE,155,5.0,5.0,69,0.00,,,0.00,Wunderground v.1.13,2013-01-27 15:40:00,
2013-01-27 09:50:00,27.5,18.0,30.22,SSE,166,5.0,5.0,67,0.00,,,0.00,Wunderground v.1.13,2013-01-27 15:50:00,
2013-01-27 09:55:00,27.6,18.1,30.22,ESE,105,5.0,5.0,67,0.00,,,0.00,Wunderground v.1.13,2013-01-27 15:55:00,
2013-01-27 10:00:00,27.6,18.1,30.22,ESE,117,4.0,4.0,67,0.00,,,0.00,Wunderground v.1.13,2013-01-27 16:00:00,
2013-01-27 10:05:00,27.8,18.3,30.20,SSE,154,3.0,13.0,67,0.00,,,0.00,Wunderground v.1.13,2013-01-27 16:05:00,
2013-01-27 10:15:00,27.9,18.4,30.20,SSE,159,3.0,3.0,67,0.00,,,0.00,Wunderground v.1.13,2013-01-27 16:15:00,
2013-01-27 10:20:00,28.1,19.2,30.20,SSE,165,3.0,13.0,69,0.00,,,0.00,Wunderground v.1.13,2013-01-27 16:20:00,
2013-01-27 10:30:00,28.1,19.9,30.20,SSE,159,4.0,13.0,71,0.00,,,0.00,Wunderground v.1.13,2013-01-27 16:30:00,
2013-01-27 10:35:00,28.1,19.9,30.19,SE,136,3.0,13.0,71,0.00,,,0.00,Wunderground v.1.13,2013-01-27 16:35:00,
2013-01-27 10:45:00,28.4,20.2,30.19,SSE,163,3.0,3.0,71,0.00,,,0.00,Wunderground v.1.13,2013-01-27 16:45:00,
2013-01-27 10:55:00,28.8,19.9,30.20,SE,142,4.0,13.0,69,0.00,,,0.00,Wunderground v.1.13,2013-01-27 16:55:00,
2013-01-27 11:00:00,28.8,19.6,30.20,East,101,4.0,4.0,68,0.00,,,0.00,Wunderground v.1.13,2013-01-27 17:00:00,
2013-01-27 11:05:00,29.0,19.8,30.18,SSE,155,4.0,15.0,68,0.00,,,0.00,Wunderground v.1.13,2013-01-27 17:05:00,
2013-01-27 11:15:00,29.3,19.7,30.18,ENE,75,5.0,5.0,67,0.00,,,0.00,Wunderground v.1.13,2013-01-27 17:15:00,
2013-01-27 11:20:00,29.4,19.8,30.17,SSE,150,5.0,5.0,67,0.00,,,0.00,Wunderground v.1.13,2013-01-27 17:20:00,
2013-01-27 11:25:00,29.4,19.8,30.17,South,175,5.0,15.0,67,0.00,,,0.00,Wunderground v.1.13,2013-01-27 17:25:00,
2013-01-27 11:30:00,29.5,19.9,30.17,SSE,155,4.0,15.0,67,0.00,,,0.00,Wunderground v.1.13,2013-01-27 17:30:00,
2013-01-27 11:35:00,29.5,19.9,30.16,SSE,157,5.0,15.0,67,0.00,,,0.00,Wunderground v.1.13,2013-01-27 17:35:00,
2013-01-27 11:45:00,29.7,20.1,30.16,SSE,157,4.0,15.0,67,0.00,,,0.00,Wunderground v.1.13,2013-01-27 17:45:00,
2013-01-27 11:50:00,29.8,20.2,30.15,SE,136,4.0,15.0,67,0.00,,,0.00,Wunderground v.1.13,2013-01-27 17:50:00,
2013-01-27 12:00:00,30.0,20.4,30.15,South,177,2.0,15.0,67,0.00,,,0.00,Wunderground v.1.13,2013-01-27 18:00:00,
2013-01-27 12:05:00,30.1,20.5,30.14,SSE,167,3.0,12.0,67,0.00,,,0.00,Wunderground v.1.13,2013-01-27 18:05:00,
2013-01-27 12:15:00,30.3,20.3,30.14,SE,137,5.0,12.0,66,0.00,,,0.00,Wunderground v.1.13,2013-01-27 18:15:00,
2013-01-27 12:25:00,30.6,20.9,30.12,SSE,150,3.0,3.0,67,0.00,,,0.00,Wunderground v.1.13,2013-01-27 18:25:00,
2013-01-27 12:30:00,30.6,20.9,30.12,ESE,120,2.0,2.0,67,0.00,,,0.00,Wunderground v.1.13,2013-01-27 18:30:00,
2013-01-27 12:35:00,30.6,21.3,30.11,SSE,153,2.0,12.0,68,0.00,,,0.00,Wunderground v.1.13,2013-01-27 18:35:00,
2013-01-27 12:45:00,30.4,21.1,30.11,ESE,112,2.0,2.0,68,0.00,,,0.00,Wunderground v.1.13,2013-01-27 18:45:00,
2013-01-27 12:50:00,30.4,21.1,30.11,ESE,108,1.0,1.0,68,0.00,,,0.00,Wunderground v.1.13,2013-01-27 18:50:00,
2013-01-27 12:55:00,30.4,21.1,30.11,SE,142,2.0,2.0,68,0.00,,,0.00,Wunderground v.1.13,2013-01-27 18:55:00,
2013-01-27 13:05:00,30.4,20.7,30.10,SE,128,2.0,2.0,67,0.00,,,0.00,Wunderground v.1.13,2013-01-27 19:05:00,
2013-01-27 13:15:00,30.3,21.3,30.10,South,178,2.0,2.0,69,0.00,,,0.00,Wunderground v.1.13,2013-01-27 19:15:00,
2013-01-27 13:20:00,30.1,21.5,30.11,SSE,164,2.0,13.0,70,0.00,,,0.00,Wunderground v.1.13,2013-01-27 19:20:00,
2013-01-27 13:25:00,30.0,21.4,30.11,SE,124,2.0,2.0,70,0.00,,,0.00,Wunderground v.1.13,2013-01-27 19:25:00,
2013-01-27 13:30:00,30.0,21.4,30.11,South,170,2.0,13.0,70,0.00,,,0.00,Wunderground v.1.13,2013-01-27 19:30:00,
2013-01-27 13:40:00,29.0,22.4,30.09,SE,134,3.0,3.0,76,0.00,,,0.00,Wunderground v.1.13,2013-01-27 19:40:00,
2013-01-27 13:50:00,28.2,23.4,30.08,East,90,2.0,13.0,82,0.00,,,0.00,Wunderground v.1.13,2013-01-27 19:50:00,
2013-01-27 13:55:00,27.9,24.0,30.08,SE,146,1.0,13.0,85,0.00,,,0.00,Wunderground v.1.13,2013-01-27 19:55:00,
2013-01-27 14:05:00,27.6,24.2,30.07,SE,125,2.0,12.0,87,0.00,,,0.00,Wunderground v.1.13,2013-01-27 20:05:00,
2013-01-27 14:15:00,27.5,24.7,30.07,SSE,155,2.0,12.0,89,0.00,,,0.00,Wunderground v.1.13,2013-01-27 20:15:00,
2013-01-27 14:20:00,27.5,24.7,30.07,SSE,154,2.0,12.0,89,0.00,,,0.00,Wunderground v.1.13,2013-01-27 20:20:00,
2013-01-27 14:30:00,27.5,25.0,30.07,East,96,1.0,12.0,90,0.00,,,0.00,Wunderground v.1.13,2013-01-27 20:30:00,
2013-01-27 14:35:00,27.6,25.1,30.05,ESE,107,1.0,1.0,90,0.00,,,0.00,Wunderground v.1.13,2013-01-27 20:35:00,
2013-01-27 14:45:00,27.6,25.3,30.05,ESE,105,3.0,12.0,91,0.00,,,0.00,Wunderground v.1.13,2013-01-27 20:45:00,
2013-01-27 14:50:00,27.6,25.3,30.04,East,90,2.0,2.0,91,0.00,,,0.00,Wunderground v.1.13,2013-01-27 20:50:00,
2013-01-27 15:00:00,27.8,25.5,30.04,East,100,2.0,2.0,91,0.00,,,0.00,Wunderground v.1.13,2013-01-27 21:00:00,
2013-01-27 15:05:00,27.9,25.6,30.05,ESE,102,2.0,2.0,91,0.00,,,0.00,Wunderground v.1.13,2013-01-27 21:05:00,
2013-01-27 15:15:00,28.2,25.9,30.05,ESE,123,1.0,1.0,91,0.00,,,0.00,Wunderground v.1.13,2013-01-27 21:15:00,
2013-01-27 15:20:00,28.4,26.1,30.03,East,96,1.0,1.0,91,0.00,,,0.00,Wunderground v.1.13,2013-01-27 21:20:00,
2013-01-27 15:25:00,28.4,25.8,30.03,ESE,120,1.0,1.0,90,0.00,,,0.00,Wunderground v.1.13,2013-01-27 21:25:00,
2013-01-27 15:30:00,28.4,25.8,30.03,ESE,103,1.0,13.0,90,0.00,,,0.00,Wunderground v.1.13,2013-01-27 21:30:00,
2013-01-27 15:40:00,28.5,25.9,30.03,ESE,104,0.0,13.0,90,0.00,,,0.00,Wunderground v.1.13,2013-01-27 21:40:00,
2013-01-27 15:45:00,28.7,26.1,30.03,SE,128,1.0,13.0,90,0.00,,,0.00,Wunderground v.1.13,2013-01-27 21:45:00,
2013-01-27 15:50:00,28.7,25.9,29.99,ESE,105,3.0,13.0,89,0.00,,,0.00,Wunderground v.1.13,2013-01-27 21:50:00,
2013-01-27 16:00:00,28.8,26.0,29.99,East,94,1.0,13.0,89,0.00,,,0.00,Wunderground v.1.13,2013-01-27 22:00:00,
2013-01-27 16:05:00,28.8,25.7,29.99,SE,126,2.0,2.0,88,0.00,,,0.00,Wunderground v.1.13,2013-01-27 22:05:00,
2013-01-27 16:15:00,28.7,25.6,29.99,SE,136,3.0,3.0,88,0.00,,,0.00,Wunderground v.1.13,2013-01-27 22:15:00,
2013-01-27 16:20:00,28.7,25.6,29.98,ESE,122,3.0,3.0,88,0.00,,,0.00,Wunderground v.1.13,2013-01-27 22:20:00,
2013-01-27 16:25:00,28.7,25.3,29.98,SSE,158,3.0,14.0,87,0.00,,,0.00,Wunderground v.1.13,2013-01-27 22:25:00,
2013-01-27 16:30:00,28.7,25.3,29.98,ESE,105,4.0,4.0,87,0.00,,,0.00,Wunderground v.1.13,2013-01-27 22:30:00,
2013-01-27 16:40:00,28.8,25.4,29.96,SE,144,3.0,3.0,87,0.00,,,0.00,Wunderground v.1.13,2013-01-27 22:40:00,
2013-01-27 16:45:00,28.8,25.1,29.96,SE,139,2.0,2.0,86,0.00,,,0.00,Wunderground v.1.13,2013-01-27 22:45:00,
2013-01-27 16:50:00,29.0,25.3,29.95,SE,142,3.0,14.0,86,0.00,,,0.00,Wunderground v.1.13,2013-01-27 22:50:00,
2013-01-27 16:55:00,29.0,25.3,29.95,ESE,119,3.0,3.0,86,0.00,,,0.00,Wunderground v.1.13,2013-01-27 22:55:00,
2013-01-27 17:00:00,28.8,25.1,29.95,ESE,103,2.0,2.0,86,0.00,,,0.00,Wunderground v.1.13,2013-01-27 23:00:00,
2013-01-27 17:05:00,29.0,25.3,29.95,East,89,2.0,13.0,86,0.00,,,0.00,Wunderground v.1.13,2013-01-27 23:05:00,
2013-01-27 17:15:00,29.1,25.7,29.95,East,101,2.0,2.0,87,0.00,,,0.00,Wunderground v.1.13,2013-01-27 23:15:00,
2013-01-27 17:20:00,29.1,25.7,29.94,SE,130,2.0,2.0,87,0.00,,,0.00,Wunderground v.1.13,2013-01-27 23:20:00,
2013-01-27 17:30:00,29.1,26.0,29.94,SSE,149,4.0,13.0,88,0.00,,,0.00,Wunderground v.1.13,2013-01-27 23:30:00,
2013-01-27 17:40:00,29.1,26.5,29.94,SE,131,3.0,13.0,90,0.00,,,0.00,Wunderground v.1.13,2013-01-27 23:40:00,
2013-01-27 17:45:00,29.3,26.7,29.94,ESE,109,3.0,3.0,90,0.00,,,0.00,Wunderground v.1.13,2013-01-27 23:45:00,
2013-01-27 17:50:00,29.3,26.7,29.93,East,100,2.0,2.0,90,0.00,,,0.00,Wunderground v.1.13,2013-01-27 23:50:00,
2013-01-27 17:55:00,29.3,27.0,29.93,SE,133,2.0,13.0,91,0.00,,,0.00,Wunderground v.1.13,2013-01-27 23:55:00,
2013-01-27 18:05:00,29.3,27.0,29.93,SSE,150,1.0,1.0,91,0.00,,,0.00,Wunderground v.1.13,2013-01-28 00:05:00,
2013-01-27 18:15:00,29.3,27.3,29.93,SE,134,3.0,3.0,92,0.00,,,0.00,Wunderground v.1.13,2013-01-28 00:15:00,
2013-01-27 18:25:00,29.3,27.3,29.92,SE,140,1.0,1.0,92,0.00,,,0.00,Wunderground v.1.13,2013-01-28 00:25:00,
2013-01-27 18:35:00,29.3,27.3,29.92,SSE,155,1.0,1.0,92,0.00,,,0.00,Wunderground v.1.13,2013-01-28 00:35:00,
2013-01-27 18:45:00,29.4,27.4,29.92,ESE,115,1.0,10.0,92,0.00,,,0.00,Wunderground v.1.13,2013-01-28 00:45:00,
2013-01-27 18:50:00,29.4,27.4,29.92,SE,144,1.0,1.0,92,0.00,,,0.00,Wunderground v.1.13,2013-01-28 00:50:00,
2013-01-27 19:00:00,29.5,27.5,29.92,SE,128,1.0,1.0,92,0.00,,,0.00,Wunderground v.1.13,2013-01-28 01:00:00,
2013-01-27 19:05:00,29.7,27.7,29.91,ESE,121,1.0,1.0,92,0.00,,,0.00,Wunderground v.1.13,2013-01-28 01:05:00,
2013-01-27 19:15:00,29.8,28.0,29.91,ESE,111,1.0,1.0,93,0.00,,,0.00,Wunderground v.1.13,2013-01-28 01:15:00,
2013-01-27 19:25:00,30.0,28.2,29.91,ESE,119,0.0,10.0,93,0.00,,,0.00,Wunderground v.1.13,2013-01-28 01:25:00,
2013-01-27 19:35:00,30.0,28.2,29.91,SE,140,1.0,10.0,93,0.00,,,0.00,Wunderground v.1.13,2013-01-28 01:35:00,
2013-01-27 19:45:00,30.0,28.2,29.91,SE,143,0.0,10.0,93,0.00,,,0.00,Wunderground v.1.13,2013-01-28 01:45:00,
2013-01-27 19:55:00,30.0,28.2,29.90,SE,130,0.0,10.0,93,0.00,,,0.00,Wunderground v.1.13,2013-01-28 01:55:00,
2013-01-27 20:00:00,30.0,28.2,29.90,SSE,153,0.0,10.0,93,0.00,,,0.00,Wunderground v.1.13,2013-01-28 02:00:00,
2013-01-27 20:05:00,30.0,28.5,29.90,SE,127,0.0,8.0,94,0.00,,,0.00,Wunderground v.1.13,2013-01-28 02:05:00,
2013-01-27 20:15:00,30.1,28.6,29.90,SE,144,0.0,8.0,94,0.00,,,0.00,Wunderground v.1.13,2013-01-28 02:15:00,
2013-01-27 20:25:00,30.1,28.6,29.88,SSE,161,0.0,8.0,94,0.00,,,0.00,Wunderground v.1.13,2013-01-28 02:25:00,
2013-01-27 20:30:00,30.3,28.8,29.88,ESE,105,1.0,1.0,94,0.00,,,0.00,Wunderground v.1.13,2013-01-28 02:30:00,
2013-01-27 20:35:00,30.3,28.8,29.88,ESE,116,0.0,8.0,94,0.00,,,0.00,Wunderground v.1.13,2013-01-28 02:35:00,
2013-01-27 20:45:00,30.3,28.8,29.88,ESE,111,0.0,8.0,94,0.00,,,0.00,Wunderground v.1.13,2013-01-28 02:45:00,
2013-01-27 20:50:00,30.3,28.8,29.87,East,96,0.0,8.0,94,0.00,,,0.00,Wunderground v.1.13,2013-01-28 02:50:00,
2013-01-27 21:00:00,30.4,28.9,29.87,East,98,0.0,8.0,94,0.00,,,0.00,Wunderground v.1.13,2013-01-28 03:00:00,
2013-01-27 21:05:00,30.4,28.9,29.87,ESE,113,0.0,3.0,94,0.00,,,0.00,Wunderground v.1.13,2013-01-28 03:05:00,
2013-01-27 21:15:00,30.4,28.9,29.87,ESE,122,0.0,3.0,94,0.00,,,0.00,Wunderground v.1.13,2013-01-28 03:15:00,
2013-01-27 21:25:00,30.6,29.1,29.86,SE,137,0.0,3.0,94,0.00,,,0.00,Wunderground v.1.13,2013-01-28 03:25:00,
2013-01-27 21:30:00,30.6,29.1,29.86,East,101,0.0,3.0,94,0.00,,,0.00,Wunderground v.1.13,2013-01-28 03:30:00,
2013-01-27 21:40:00,30.7,29.4,29.86,SSE,159,0.0,3.0,95,0.00,,,0.00,Wunderground v.1.13,2013-01-28 03:40:00,
2013-01-27 21:50:00,30.7,29.4,29.85,SE,126,0.0,3.0,95,0.00,,,0.00,Wunderground v.1.13,2013-01-28 03:50:00,
2013-01-27 21:55:00,30.9,29.6,29.85,SSE,154,0.0,3.0,95,0.00,,,0.00,Wunderground v.1.13,2013-01-28 03:55:00,
2013-01-27 22:00:00,30.9,29.6,29.85,SSE,154,0.0,3.0,95,0.00,,,0.00,Wunderground v.1.13,2013-01-28 04:00:00,
2013-01-27 22:05:00,31.0,29.7,29.84,SSE,154,0.0,4.0,95,0.00,,,0.00,Wunderground v.1.13,2013-01-28 04:05:00,
2013-01-27 22:15:00,31.0,29.7,29.84,SSE,154,0.0,4.0,95,0.00,,,0.00,Wunderground v.1.13,2013-01-28 04:15:00,
2013-01-27 22:25:00,31.2,29.9,29.83,ESE,109,0.0,4.0,95,0.00,,,0.00,Wunderground v.1.13,2013-01-28 04:25:00,
2013-01-27 22:30:00,31.3,30.0,29.83,ESE,123,0.0,4.0,95,0.00,,,0.00,Wunderground v.1.13,2013-01-28 04:30:00,
2013-01-27 22:40:00,31.5,30.2,29.83,SE,142,0.0,4.0,95,0.00,,,0.00,Wunderground v.1.13,2013-01-28 04:40:00,
2013-01-27 22:45:00,31.5,30.2,29.83,SE,142,0.0,4.0,95,0.00,,,0.00,Wunderground v.1.13,2013-01-28 04:45:00,
2013-01-27 22:55:00,31.6,30.3,29.83,SE,137,0.0,4.0,95,0.00,,,0.00,Wunderground v.1.13,2013-01-28 04:55:00,
2013-01-27 23:05:00,31.8,30.5,29.83,SE,137,0.0,5.0,95,0.00,,,0.00,Wunderground v.1.13,2013-01-28 05:05:00,
2013-01-27 23:10:00,31.8,30.5,29.83,SE,137,0.0,5.0,95,0.00,,,0.00,Wunderground v.1.13,2013-01-28 05:10:00,
2013-01-27 23:15:00,31.9,30.6,29.83,SE,138,0.0,5.0,95,0.00,,,0.00,Wunderground v.1.13,2013-01-28 05:15:00,
2013-01-27 23:25:00,31.9,30.6,29.82,SE,138,0.0,5.0,95,0.00,,,0.00,Wunderground v.1.13,2013-01-28 05:25:00,
2013-01-27 23:35:00,31.9,30.9,29.81,SE,138,0.0,5.0,96,0.00,,,0.00,Wunderground v.1.13,2013-01-28 05:35:00,
2013-01-27 23:45:00,32.1,31.1,29.81,SE,138,0.0,5.0,96,0.00,,,0.00,Wunderground v.1.13,2013-01-28 05:45:00,
2013-01-27 23:55:00,32.1,31.1,29.81,SE,138,0.0,5.0,96,0.00,,,0.00,Wunderground v.1.13,2013-01-28 05:55:00,